Location: Cointrin
(46.2167°N, 6.1167°E)
Time: 12:31:07
(UTC+00:00)

COSMOS 2251 DEB - Pass Details

Date: 01 March 2024
Orbit: 737 x 762 km, 74.0° (Epoch: 12 April)

Event Time Altitude Azimuth Distance (km) Brightness Sun altitude
Rises 21:31:00 0° 343° (NNW) 3,225 ? -41.1°
Reaches altitude 10° 21:33:31 10° 350° (N) 2,292 ? -41.4°
Enters shadow 21:33:37 11° 350° (N) 2,254 ? -41.5°
